Location: Arthez
(43.0833°N, 0.2500°W)
Time: 12:16:10
(UTC+00:00)

Cosmos 304 Rocket - Pass Details

Date: 02 June 2022
Orbit: 679 x 686 km, 74.0° (Epoch: 01 July)

Event Time Altitude Azimuth Distance (km) Brightness Sun altitude
Exits shadow 00:39:54 27° 271° (W) 1,297 5.1 -24.1°
Maximum altitude 00:41:06 31° 299° (WNW) 1,199 5.1 -24.0°
Drops below altitude 10° 00:45:24 10° 1° (N) 2,143 7.4 -23.9°
Sets 00:47:57 0° 12° (NNE) 3,063 8.6 -23.8°
